Location: Newark
(42.9858°N, 0.6717°E)
Time: 18:30:49
(UTC+00:00)

S-56A Canister/Altair - Pass Details

Date: 28 November 2019
Orbit: 633 x 2499 km, 38.9° (Epoch: 11 December)

Event Time Altitude Azimuth Distance (km) Brightness Sun altitude
Rises 20:47:19 0° 276° (W) 4,416 12.1 -47.3°
Reaches altitude 10° 20:53:16 10° 246° (WSW) 2,927 10.8 -48.3°
Enters shadow 20:53:42 10° 242° (WSW) 2,855 10.7 -48.4°
Maximum altitude 20:55:07 11° 230° (SW) 2,686 - -48.6°
Drops below altitude 10° 20:56:50 10° 214° (SW) 2,632 - -48.9°
Sets 21:01:13 0° 179° (S) 3,243 - -49.7°
